Location: Newark
(42.7133°N, 87.7910°W)
Time: 12:51:49
(UTC+00:00)

Tiros 1 - Pass Details

Date: 24 October 2019
Orbit: 630 x 664 km, 48.4° (Epoch: 14 November)

Event Time Altitude Azimuth Distance (km) Brightness Sun altitude
Exits shadow 11:39:43 - 293° (WNW) 2,237 9.3 -7.2°
Reaches altitude 10° 11:40:08 10° 292° (WNW) 2,083 9.1 -7.1°
Maximum altitude 11:44:52 60° 213° (SSW) 758 7.4 -6.2°
Drops below altitude 10° 11:49:35 10° 134° (SE) 2,073 10.8 -5.4°
Sets 11:51:56 0° 131° (SE) 2,980 11.8 -4.9°
